Weather History for PAWG - October, 2013

Change the Weather History Date:

Tuesday, October 1, 2013

  Actual Average Record
Temperature  
Mean Temperature 50 °F -  
Max Temperature 53 °F 53 °F 69 °F (2010)
Min Temperature 46 °F 42 °F 33 °F (1996)
Degree Days  
Heating Degree Days 16    
Moisture  
Dew Point 43 °F    
Average Humidity 83    
Maximum Humidity 87    
Minimum Humidity 62    
Precipitation  
Precipitation 0.03 in - - ()
Sea Level Pressure  
Sea Level Pressure 29.76 in    
Wind  
Wind Speed 7 mph (ESE)    
Max Wind Speed 13 mph    
Max Gust Speed -    
Visibility 10 miles    
Events      
Averages and records for this station are not official NWS values.
T = Trace of Precipitation, MM = Missing Value Source: NWS Daily Summary

Daily Weather History Graph

Daily Weather History Graph

Search for Another Location

Airport or City:

Trip Planner

Search our weather history database for the weather conditions in past years. The results will help you decide how hot, cold, wet, or windy it might be!

Date:

Astronomy

Oct. 01, 2013 Rise Set
Actual Time 6:53 AM AKDT 6:23 PM AKDT
Civil Twilight 6:16 AM AKDT 7:00 PM AKDT
Nautical Twilight 5:32 AM AKDT 7:44 PM AKDT
Astronomical Twilight 4:46 AM AKDT 8:29 PM AKDT
Moon 3:03 AM AKDT (10/1) 4:55 PM AKDT (10/1)
Length of Visible Light 12h 44m
Length of Day
11h 29m
Waning Crescent, 11% of the Moon is Illuminated
Oct 1
Waning Crescent
Oct 4
New
Oct 11
First Quarter
Oct 18
Full
Oct 26
Last Quarter

Hourly Weather History & Observations

Time (AKDT) Temp. Windchill Dew Point Humidity Pressure Visibility Wind Dir Wind Speed Gust Speed Precip Events Conditions
12:16 AM 46.4 °F 43.5 °F 42.8 °F 87% 29.56 in 10.0 mi SE 5.8 mph - 0.01 in   Overcast
12:36 AM 46.4 °F 43.5 °F 42.8 °F 87% 29.56 in 10.0 mi ESE 5.8 mph - 0.02 in   Overcast
1:16 AM 46.4 °F 43.5 °F 42.8 °F 87% 29.58 in 10.0 mi SE 5.8 mph - N/A   Overcast
1:36 AM 46.4 °F 42.9 °F 42.8 °F 87% 29.59 in 10.0 mi SE 6.9 mph - N/A   Overcast
1:56 AM 46.4 °F 41.5 °F 42.8 °F 87% 29.59 in 10.0 mi East 10.4 mph - N/A   Overcast
2:16 AM 46.4 °F 41.1 °F 42.8 °F 87% 29.60 in 10.0 mi East 11.5 mph - N/A   Overcast
2:36 AM 46.4 °F 41.1 °F 42.8 °F 87% 29.60 in 10.0 mi East 11.5 mph - N/A   Overcast
2:56 AM 46.4 °F 41.5 °F 42.8 °F 87% 29.61 in 10.0 mi East 10.4 mph - N/A   Overcast
3:16 AM 46.4 °F 40.7 °F 42.8 °F 87% 29.61 in 10.0 mi East 12.7 mph - N/A   Overcast
3:36 AM 46.4 °F 42.4 °F 42.8 °F 87% 29.62 in 10.0 mi ESE 8.1 mph - N/A   Overcast
3:56 AM 46.4 °F 41.5 °F 42.8 °F 87% 29.62 in 10.0 mi East 10.4 mph - 0.01 in   Overcast
4:16 AM 46.4 °F 41.1 °F 42.8 °F 87% 29.63 in 10.0 mi East 11.5 mph - N/A   Overcast
4:36 AM 46.4 °F 41.1 °F 42.8 °F 87% 29.63 in 10.0 mi East 11.5 mph - N/A   Overcast
4:56 AM 46.4 °F 41.5 °F 42.8 °F 87% 29.64 in 10.0 mi East 10.4 mph - N/A   Overcast
5:16 AM 46.4 °F 42.4 °F 42.8 °F 87% 29.65 in 10.0 mi East 8.1 mph - N/A   Overcast
5:36 AM 46.4 °F 42.9 °F 42.8 °F 87% 29.65 in 10.0 mi East 6.9 mph - N/A   Overcast
5:56 AM 46.4 °F 43.5 °F 42.8 °F 87% 29.66 in 10.0 mi East 5.8 mph - N/A   Overcast
6:16 AM 46.4 °F 45.2 °F 42.8 °F 87% 29.66 in 10.0 mi East 3.5 mph - N/A   Overcast
6:36 AM 46.4 °F 42.4 °F 42.8 °F 87% 29.67 in 10.0 mi East 8.1 mph - N/A   Overcast
6:56 AM 46.4 °F 42.9 °F 42.8 °F 87% 29.67 in 10.0 mi ESE 6.9 mph - N/A   Mostly Cloudy
7:16 AM 46.4 °F 41.5 °F 42.8 °F 87% 29.67 in 10.0 mi ESE 10.4 mph - N/A   Mostly Cloudy
7:36 AM 46.4 °F 42.9 °F 41.0 °F 81% 29.68 in 10.0 mi ESE 6.9 mph - N/A   Mostly Cloudy
7:56 AM 46.4 °F 42.9 °F 42.8 °F 87% 29.68 in 10.0 mi ESE 6.9 mph - N/A   Mostly Cloudy
8:16 AM 46.4 °F 43.5 °F 42.8 °F 87% 29.69 in 10.0 mi SE 5.8 mph - N/A   Mostly Cloudy
8:36 AM 46.4 °F 43.5 °F 42.8 °F 87% 29.70 in 10.0 mi ESE 5.8 mph - N/A   Mostly Cloudy
8:56 AM 46.4 °F 42.9 °F 42.8 °F 87% 29.70 in 10.0 mi ESE 6.9 mph - N/A   Mostly Cloudy
9:16 AM 46.4 °F 41.9 °F 42.8 °F 87% 29.71 in 10.0 mi SE 9.2 mph - N/A   Mostly Cloudy
9:36 AM 48.2 °F - 42.8 °F 82% 29.71 in 10.0 mi ESE 8.1 mph - N/A   Mostly Cloudy
9:56 AM 48.2 °F - 42.8 °F 82% 29.71 in 10.0 mi ESE 8.1 mph - N/A   Mostly Cloudy
10:16 AM 48.2 °F - 42.8 °F 82% 29.71 in 10.0 mi SE 8.1 mph - N/A   Overcast
10:36 AM 48.2 °F - 42.8 °F 82% 29.72 in 10.0 mi ESE 9.2 mph - N/A   Overcast
10:56 AM 50.0 °F - 44.6 °F 82% 29.73 in 10.0 mi East 5.8 mph - N/A   Overcast
11:16 AM 50.0 °F - 42.8 °F 76% 29.74 in 10.0 mi East 6.9 mph - N/A   Overcast
11:36 AM 48.2 °F - 42.8 °F 82% 29.74 in 10.0 mi East 8.1 mph - N/A   Overcast
11:56 AM 48.2 °F - 44.6 °F 87% 29.75 in 10.0 mi East 11.5 mph - N/A   Overcast
12:16 PM 50.0 °F - 44.6 °F 82% 29.76 in 10.0 mi ESE 8.1 mph - N/A   Overcast
12:36 PM 53.6 °F - 42.8 °F 67% 29.76 in 10.0 mi ESE 10.4 mph - N/A   Overcast
12:56 PM 51.8 °F - 42.8 °F 71% 29.77 in 10.0 mi SE 5.8 mph - N/A   Overcast
1:16 PM 53.6 °F - 41.0 °F 62% 29.78 in 10.0 mi SE 5.8 mph - N/A   Overcast
1:36 PM 51.8 °F - 41.0 °F 67% 29.79 in 10.0 mi Calm Calm - N/A   Overcast
1:56 PM 51.8 °F - 41.0 °F 67% 29.80 in 10.0 mi SSE 8.1 mph - N/A   Overcast
2:16 PM 50.0 °F - 42.8 °F 76% 29.80 in 10.0 mi Calm Calm - 0.01 in   Overcast
2:36 PM 50.0 °F - 44.6 °F 82% 29.81 in 10.0 mi East 6.9 mph - 0.01 in   Overcast
2:56 PM 48.2 °F - 44.6 °F 87% 29.81 in 10.0 mi East 6.9 mph - 0.01 in   Overcast
3:16 PM 48.2 °F - 44.6 °F 87% 29.81 in 10.0 mi East 9.2 mph - N/A   Overcast
3:36 PM 48.2 °F - 44.6 °F 87% 29.82 in 10.0 mi East 6.9 mph - N/A   Overcast
3:56 PM 48.2 °F - 44.6 °F 87% 29.82 in 10.0 mi SSE 3.5 mph - N/A   Overcast
4:16 PM 50.0 °F - 44.6 °F 82% 29.83 in 10.0 mi Calm Calm - N/A   Overcast
4:36 PM 50.0 °F - 44.6 °F 82% 29.83 in 10.0 mi Calm Calm - N/A   Overcast
4:56 PM 48.2 °F - 44.6 °F 87% 29.84 in 10.0 mi WNW 3.5 mph - N/A   Overcast
5:16 PM 48.2 °F - 42.8 °F 82% 29.84 in 10.0 mi Calm Calm - 0.01 in   Overcast
5:36 PM 48.2 °F - 44.6 °F 87% 29.84 in 10.0 mi North 3.5 mph - 0.01 in   Overcast
5:56 PM 48.2 °F - 42.8 °F 82% 29.85 in 10.0 mi Calm Calm - 0.01 in   Overcast
6:16 PM 48.2 °F - 42.8 °F 82% 29.86 in 10.0 mi Calm Calm - N/A   Mostly Cloudy
6:36 PM 48.2 °F - 42.8 °F 82% 29.86 in 10.0 mi Calm Calm - N/A   Mostly Cloudy
6:56 PM 48.2 °F - 42.8 °F 82% 29.87 in 10.0 mi Calm Calm - N/A   Overcast
7:16 PM 48.2 °F - 42.8 °F 82% 29.87 in 10.0 mi Calm Calm - N/A   Overcast
7:36 PM 46.4 °F 43.5 °F 42.8 °F 87% 29.88 in 10.0 mi West 5.8 mph - N/A   Overcast
7:56 PM 48.2 °F - 44.6 °F 87% 29.89 in 10.0 mi SE 3.5 mph - N/A   Overcast
8:16 PM 48.2 °F - 44.6 °F 87% 29.90 in 10.0 mi Calm Calm - N/A   Overcast
8:36 PM 48.2 °F - 42.8 °F 82% 29.90 in 10.0 mi South 4.6 mph - N/A   Overcast
8:56 PM 48.2 °F - 42.8 °F 82% 29.91 in 10.0 mi SSW 5.8 mph - N/A   Overcast
9:16 PM 48.2 °F - 42.8 °F 82% 29.92 in 10.0 mi SSW 3.5 mph - N/A   Overcast
9:36 PM 48.2 °F - 44.6 °F 87% 29.93 in 10.0 mi Calm Calm - N/A   Overcast
9:56 PM 48.2 °F - 44.6 °F 87% 29.94 in 10.0 mi ENE 3.5 mph - N/A   Overcast
10:16 PM 48.2 °F - 44.6 °F 87% 29.94 in 10.0 mi SSW 3.5 mph - N/A   Overcast
10:36 PM 48.2 °F - 42.8 °F 82% 29.96 in 10.0 mi Calm Calm - N/A   Overcast
10:56 PM 48.2 °F - 42.8 °F 82% 29.96 in 10.0 mi ESE 5.8 mph - N/A   Overcast
11:16 PM 48.2 °F - 42.8 °F 82% 29.97 in 10.0 mi SE 5.8 mph - N/A   Overcast
11:36 PM 48.2 °F - 42.8 °F 82% 29.97 in 10.0 mi SE 6.9 mph - N/A   Overcast
11:56 PM 48.2 °F - 42.8 °F 82% 29.98 in 10.0 mi ESE 5.8 mph - N/A   Overcast